This is the latest recevied weather packets stored in our database for station/object K5NWZ. If no packets are shown the sender has not sent any weather packets the latest 10 day(s).
| Time | Temp. | Humidity | Pressure | Rain* | Wind** | Luminosity | Snow |
|---|---|---|---|---|---|---|---|
| 1788027931 | 32.78° C | 28% | 1026.2 hPa | 0 mm | - | 414 W/m² | - |
| 1788027626 | 33.33° C | 27% | 1026.3 hPa | 0 mm | - | 541 W/m² | - |
| 1788027325 | 32.78° C | 27% | 1026.3 hPa | 0 mm | - | 802 W/m² | - |
| 1788027020 | 31.67° C | 28% | 1026.3 hPa | 0 mm | - | 675 W/m² | - |
| 1788026719 | 32.22° C | 28% | 1026.3 hPa | 0 mm | - | 479 W/m² | - |
| 1788026416 | 32.22° C | 28% | 1026.8 hPa | 0 mm | - | 608 W/m² | - |
| 1788026110 | 31.67° C | 28% | 1026.7 hPa | 0 mm | - | 387 W/m² | - |
| 1788025809 | 31.67° C | 31% | 1026.7 hPa | 0 mm | - | 347 W/m² | - |
| 1788025508 | 31.67° C | 28% | 1026.8 hPa | 0 mm | - | 316 W/m² | - |
| 1788025203 | 31.67° C | 28% | 1026.7 hPa | 0 mm | - | 349 W/m² | - |
| 1788024899 | 31.67° C | 28% | 1026.8 hPa | 0 mm | - | 393 W/m² | - |
| 1788024594 | 32.22° C | 29% | 1026.7 hPa | 0 mm | - | 590 W/m² | - |
| 1788024289 | 32.78° C | 30% | 1026.7 hPa | 0 mm | - | 684 W/m² | - |
| 1788023984 | 32.22° C | 29% | 1026.7 hPa | 0 mm | - | 740 W/m² | - |
| 1788023680 | 31.67° C | 29% | 1026.9 hPa | 0 mm | - | 710 W/m² | - |
| 1788023375 | 31.11° C | 30% | 1027 hPa | 0 mm | - | 668 W/m² | - |
| 1788023074 | 31.11° C | 28% | 1027 hPa | 0 mm | - | 571 W/m² | - |
| 1788022773 | 30.56° C | 29% | 1027 hPa | 0 mm | - | 662 W/m² | - |
| 1788022471 | 30.56° C | 31% | 1026.9 hPa | 0 mm | - | 566 W/m² | - |
| 1788022167 | 31.11° C | 30% | 1027.2 hPa | 0 mm | - | 217 W/m² | - |
| 1788021861 | 31.11° C | 32% | 1027.2 hPa | 0 mm | - | 608 W/m² | - |
| 1788021560 | 31.11° C | 30% | 1027 hPa | 0 mm | - | 535 W/m² | - |
| 1788021258 | 30.56° C | 32% | 1026.9 hPa | 0 mm | - | 599 W/m² | - |
| 1788020954 | 30° C | 32% | 1027.3 hPa | 0 mm | - | 573 W/m² | - |
| 1788020653 | 29.44° C | 32% | 1027.4 hPa | 0 mm | - | 233 W/m² | - |
* Rain latest hour (hover to see other rain measurements)
** Current wind speed in m/s (hover to see current wind gust speed)